Pascagoula, MS

4:11 PM CDT on September 16, 2019 (GMT -0500)
Lott International

Weather History for KPQL - August, 2019

Change the Weather History Date:

Sunday, August 25, 2019

  Actual Average Record
Temperature  
Mean Temperature 82 °F -  
Max Temperature 89 °F 90 °F 96 °F (1963)
Min Temperature 75 °F 73 °F 65 °F (1973)
Cooling Degree Days 16    
Growing Degree Days 32 (Base 50)    
Moisture  
Dew Point 74 °F    
Average Humidity 83    
Maximum Humidity 91    
Minimum Humidity 65    
Precipitation  
Precipitation 0.89 in - - ()
Sea Level Pressure  
Sea Level Pressure 29.95 in    
Wind  
Wind Speed 2 mph ()    
Max Wind Speed 14 mph    
Max Gust Speed 29 mph    
Visibility 7.3 miles    
Events Fog , Rain , Thunderstorm    
Averages and records for this station are not official NWS values.
T = Trace of Precipitation, MM = Missing Value Source: Averaged Metar Reports

Daily Weather History Graph

Daily Weather History Graph

Search for Another Location

Airport or City:

Astronomy

Aug. 25, 2019 Rise Set
Actual Time 6:26 AM CDT 7:25 PM CDT
Civil Twilight 6:01 AM CDT 7:50 PM CDT
Nautical Twilight 5:32 AM CDT 8:19 PM CDT
Astronomical Twilight 5:02 AM CDT 8:49 PM CDT
Moon 1:13 AM CDT (8/25) 3:32 PM CDT (8/25)
Length of Visible Light 13h 48m
Length of Day
12h 58m
Waning Crescent, 29% of the Moon is Illuminated
Aug 25
Waning Crescent
Aug 30
New
Sep 5
First Quarter
Sep 13
Full
Sep 21
Last Quarter

Hourly Weather History & Observations

Time (CDT) Temp. Heat Index Dew Point Humidity Pressure Visibility Wind Dir Wind Speed Gust Speed Precip Events Conditions
12:53 AM 78.1 °F - 73.9 °F 87% 29.97 in 10.0 mi Calm Calm - N/A   Clear
1:53 AM 79.0 °F - 73.9 °F 84% 29.96 in 10.0 mi Calm Calm - N/A   Clear
2:53 AM 79.0 °F - 73.9 °F 84% 29.95 in 10.0 mi Calm Calm - N/A   Clear
3:53 AM 78.1 °F - 73.9 °F 87% 29.94 in 10.0 mi Calm Calm - N/A   Clear
4:53 AM 77.0 °F - 73.0 °F 88% 29.93 in 10.0 mi Calm Calm - N/A   Partly Cloudy
5:53 AM 77.0 °F - 73.0 °F 88% 29.94 in 10.0 mi Calm Calm - N/A   Clear
6:53 AM 78.1 °F - 73.9 °F 87% 29.95 in 10.0 mi Calm Calm - N/A   Clear
8:53 AM 82.0 °F 87.9 °F 73.9 °F 76% 29.96 in 10.0 mi ENE 3.5 mph - N/A   Clear
9:53 AM 86.0 °F 93.8 °F 73.9 °F 67% 29.98 in 10.0 mi Calm Calm - N/A   Scattered Clouds
10:42 AM 86.0 °F 95.1 °F 75.0 °F 70% 29.97 in 10.0 mi SSE 4.6 mph - N/A Thunderstorm Thunderstorm
10:53 AM 80.1 °F 84.2 °F 73.0 °F 79% 29.98 in 5.0 mi SE 13.8 mph 26.5 mph 0.01 in Rain , Thunderstorm Light Thunderstorms and Rain
11:01 AM 78.1 °F - 73.0 °F 84% 29.97 in 2.5 mi East 11.5 mph - 0.04 in Rain , Thunderstorm Light Thunderstorms and Rain
11:09 AM 79.0 °F - 72.0 °F 79% 29.98 in 0.8 mi ESE 6.9 mph - 0.23 in Rain , Thunderstorm Heavy Thunderstorms and Rain
11:18 AM 78.1 °F - 73.9 °F 87% 29.98 in 1.8 mi WSW 3.5 mph - 0.31 in Rain , Thunderstorm Light Rain
11:26 AM 78.1 °F - 73.9 °F 87% 29.98 in 1.8 mi Calm Calm - 0.34 in Rain , Thunderstorm Heavy Rain
11:33 AM 78.1 °F - 73.9 °F 87% 29.98 in 3.0 mi NW 3.5 mph - 0.34 in Rain , Thunderstorm Light Rain
11:53 AM 79.0 °F - 75.0 °F 88% 29.99 in 10.0 mi North 6.9 mph - 0.34 in   Mostly Cloudy
12:10 PM 79.0 °F - 75.0 °F 88% 30.00 in 1.5 mi South 6.9 mph - 0.13 in Rain Heavy Rain
12:13 PM 78.1 °F - 75.0 °F 90% 29.99 in 0.2 mi Variable 3.5 mph - 0.35 in Fog , Rain Heavy Rain
12:22 PM 78.1 °F - 75.0 °F 90% 29.98 in 0.5 mi NE 8.1 mph - 0.44 in Fog , Rain Rain
12:26 PM 78.1 °F - 75.0 °F 90% 29.98 in 2.0 mi NE 4.6 mph - 0.45 in Rain Heavy Rain
12:32 PM 78.1 °F - 75.0 °F 90% 29.98 in 5.0 mi Calm Calm - 0.45 in Rain , Thunderstorm Light Rain
12:53 PM 80.1 °F 85.4 °F 75.9 °F 87% 29.97 in 10.0 mi ENE 3.5 mph - 0.45 in Rain Light Rain
1:53 PM 87.1 °F 98.8 °F 77.0 °F 72% 29.94 in 10.0 mi SSE 9.2 mph - 0.01 in   Scattered Clouds
2:53 PM 88.0 °F 97.5 °F 75.0 °F 65% 29.91 in 10.0 mi South 9.2 mph - N/A   Clear
3:53 PM 86.0 °F 96.0 °F 75.9 °F 72% 29.90 in 10.0 mi North - - N/A   Partly Cloudy
4:53 PM 84.0 °F 91.9 °F 75.0 °F 74% 29.91 in 10.0 mi SW 4.6 mph - N/A   Partly Cloudy
5:53 PM 82.0 °F 87.9 °F 73.9 °F 76% 29.90 in 10.0 mi Variable 3.5 mph - 0.00 in   Clear
6:53 PM 82.0 °F 87.9 °F 73.9 °F 76% 29.91 in 10.0 mi Calm Calm - N/A   Clear
7:53 PM 79.0 °F - 75.0 °F 88% 29.91 in 10.0 mi Calm Calm - N/A   Scattered Clouds
8:53 PM 80.1 °F 84.5 °F 73.9 °F 81% 29.93 in 10.0 mi Calm Calm - N/A   Partly Cloudy
9:39 PM 75.9 °F - 72.0 °F 87% 29.94 in 1.8 mi Variable 6.9 mph 28.8 mph 0.08 in Rain Heavy Rain
9:45 PM 75.9 °F - 72.0 °F 87% 29.94 in 3.0 mi WSW 5.8 mph - 0.08 in Rain Light Rain
9:53 PM 75.9 °F - 72.0 °F 87% 29.95 in 10.0 mi Variable 4.6 mph - 0.08 in   Mostly Cloudy
10:09 PM 75.9 °F - 73.0 °F 91% 29.95 in 10.0 mi Calm Calm - 0.00 in Rain , Thunderstorm Light Rain
10:24 PM 77.0 °F - 73.0 °F 88% 29.94 in 10.0 mi Calm Calm - 0.00 in   Mostly Cloudy
10:53 PM 77.0 °F - 73.9 °F 90% 29.94 in 10.0 mi Calm Calm - 0.00 in   Partly Cloudy
11:53 PM 77.0 °F - 73.0 °F 88% 29.93 in 10.0 mi Calm Calm - N/A   Scattered Clouds